Regional Weather Roundup
Issued by NWS Green Bay, WI

Home | Current Version | Previous Version | Graphics & Text | Print | Product List | Glossary Off
Versions: 1 2 3 4 5 6 7 8 9 10 11 12 13 14 15 16 17 18 19 20 21 22 23 24 25 26 27 28 29 30 31 32 33 34 35 36 37 38 39 40 41 42 43 44 45 46 47 48 49 50

615
ASUS43 KGRB 202111
RWRGRB

NORTH-CENTRAL AND NORTHEAST WISCONSIN REGIONAL WEATHER ROUNDUP
NATIONAL WEATHER SERVICE GREEN BAY WI
300 PM CST SAT JAN 20 2018

WIZ005-009-010>012-018-019-202200-
NORTH CENTRAL WISCONSIN

CITY           SKY/WX    TMP DP  RH WIND       PRES   REMARKS
IRONWOOD       FAIR      40  30  67 SW9       29.83R
MANITOWISH WTR FAIR      37  32  84 S6        29.83S
ARBOR VITAE    PTSUNNY   38  32  80 S5        29.84S
EAGLE RIVER    FAIR      36  29  78 SW6       29.84R
LAND O LAKES   FAIR      40  31  69 SW6       29.85R
RHINELANDER    CLOUDY    36  31  82 CALM      29.86R
PHILLIPS       CLOUDY    37  31  80 S6        29.84S
ANTIGO         CLOUDY    34  31  90 CALM      29.88R
TOMAHAWK       CLOUDY    37  30  77 CALM      29.86S
MERRILL        CLOUDY    39  31  74 CALM      29.88R
$$

WIZ013-073-202200-
NORTHEAST WISCONSIN

CITY           SKY/WX    TMP DP  RH WIND       PRES   REMARKS
IRON MOUNTAIN  CLOUDY    38  30  73 S3        29.84R
MARINETTE      PTSUNNY   40  31  70 S5        29.89R
OCONTO         PTSUNNY   39  30  69 S5        29.89S
$$

WIZ017-030-035>037-045-202200-
CENTRAL WISCONSIN

CITY           SKY/WX    TMP DP  RH WIND       PRES   REMARKS
MEDFORD        CLOUDY    36  30  80 S6        29.86S
WAUSAU         CLOUDY    41  30  65 CALM      29.85R
MOSINEE        CLOUDY    39  30  70 CALM      29.88R
MARSHFIELD     CLOUDY    40  31  70 CALM      29.87R
WISC RAPIDS    FAIR      40  29  64 CALM      29.90R
STEVENS POINT  PTSUNNY   39  30  68 S3        29.89R
WAUPACA        FAIR      44  32  62 CALM      29.91R
SHAWANO        FAIR      44  31  59 CALM      29.89R
CLINTONVILLE   FAIR      41  30  65 SW3       29.90R
WAUTOMA        FAIR      43  31  62 CALM      29.90R
$$

WIZ038-039-048-051-202200-
FOX VALLEY

CITY           SKY/WX    TMP DP  RH WIND       PRES   REMARKS
NWS GREEN BAY  FAIR      40  30  67 CALM      29.89R
APPLETON       PTSUNNY   39  28  65 CALM      29.88R
OSHKOSH        FAIR      42  33  70 S3        29.89S
FOND DU LAC    FAIR      44  30  57 CALM      29.90R
$$

WIZ022-050-052-202200-
EAST CENTRAL WISCONSIN

CITY           SKY/WX    TMP DP  RH WIND       PRES   REMARKS
EPHRAIM        CLOUDY    38  29  69 CALM      29.88R
WASHINGTON ISL CLOUDY    37  29  75 CALM      29.88R
STURGEON BAY   FAIR      40  29  64 CALM      29.90R
MANITOWOC      FAIR      42  31  64 S5        29.91R
SHEBOYGAN      FAIR      42  33  70 SE3       29.91R
$$

LMZ563-521-522-541>543-202200-
LAKESHORE

STATION/POSITION TIME  TEMP    WIND        PRES    VSBY  WAVE
                       AIR SEA DIR/SP/G                  HT/PER
                 (UTC) (F)     (DEG/KT/KT) (MB)    (MI)  (FT/S)
SHEBOYGAN LKSHOR 2100   37     190/  3/  3 1013.3R
KEWAUNEE LKSHORE 2042   38     160/  1/  3 1011.8R
NORTHPORT PIER   2040   36        CALM     1011.9R
SISTER BAY LKSHO 2005   43      CALM  /  3   N/A
MENOMINEE LKSHOR 2036   37     170/  7/  9 1011.8R
$$




USA.gov is the U.S. government's official web portal to all federal, state and local government web resources and services.